Weather History for Eau Claire, WI

Change the Weather History Date:

Tuesday, February 12, 2013

  Actual Average Record
Temperature  
Mean Temperature 24 °F 18 °F  
Max Temperature 33 °F 28 °F 50 °F (2005)
Min Temperature 15 °F 9 °F -28 °F (1967)
Degree Days  
Heating Degree Days 41 47  
Month to date heating degree days 598 579  
Since 1 July heating degree days 5141 5323  
Cooling Degree Days 0 0  
Month to date cooling degree days 0 0  
Year to date cooling degree days 0 0  
Moisture  
Dew Point 17 °F    
Average Humidity 74    
Maximum Humidity 88    
Minimum Humidity 59    
Precipitation  
Precipitation T in 0.03 in 0.93 in (1984)
Month to date precipitation 0.81 0.32  
Year to date precipitation 1.89 1.21  
Snow  
Snow T in 0.30 in 4.10 in (2000)
Month to date snowfall 4.8 3.5  
Since 1 July snowfall 31.9 32.5  
Snow Depth 4.00 in    
Sea Level Pressure  
Sea Level Pressure 29.95 in    
Wind  
Wind Speed 8 mph (SW)    
Max Wind Speed 16 mph    
Max Gust Speed 20 mph    
Visibility 10 miles    
Events Snow    
T = Trace of Precipitation, MM = Missing Value Source: NWS Daily Summary

Daily Weather History Graph

Daily Weather History Graph

Search for Another Location

Airport:

Trip Planner

Search our weather history database for the weather conditions in past years. The results will help you decide how hot, cold, wet, or windy it might be!

Date:

Astronomy

Feb. 12, 2013 Rise Set
Actual Time 7:10 AM CST 5:30 PM CST
Civil Twilight 6:40 AM CST 6:00 PM CST
Nautical Twilight 6:05 AM CST 6:35 PM CST
Astronomical Twilight 5:31 AM CST 7:09 PM CST
Moon 7:58 AM CST (2/12) 8:42 PM CST (2/12)
Length of Visible Light 11h 20m
Length of Day
10h 19m
Waxing Crescent, 7% of the Moon is Illuminated
Feb 12
Waxing Crescent
Feb 17
First Quarter
Feb 25
Full
Mar 4
Last Quarter
Mar 11
New

Hourly Weather History & Observations

Time (CST) Temp. Windchill Dew Point Humidity Pressure Visibility Wind Dir Wind Speed Gust Speed Precip Events Conditions
12:56 AM 19.9 °F 10.1 °F 12.9 °F 74% 30.03 in 10.0 mi West 8.1 mph - N/A   Overcast
1:56 AM 19.9 °F 10.1 °F 12.9 °F 74% 30.03 in 10.0 mi West 8.1 mph - N/A   Overcast
2:56 AM 19.0 °F 6.8 °F 12.9 °F 77% 30.04 in 7.0 mi WSW 11.5 mph - 0.00 in Snow Light Snow
3:56 AM 19.0 °F 9.0 °F 12.9 °F 77% 30.04 in 10.0 mi WSW 8.1 mph - 0.00 in   Overcast
4:56 AM 18.0 °F 7.7 °F 12.0 °F 78% 30.04 in 10.0 mi West 8.1 mph - N/A   Overcast
5:42 AM 17.6 °F 10.7 °F 10.4 °F 73% 30.00 in 10.0 mi WSW 4.6 mph - N/A   Scattered Clouds
5:56 AM 16.0 °F 8.8 °F 10.9 °F 81% 30.05 in 10.0 mi WSW 4.6 mph - N/A   Partly Cloudy
6:47 AM 15.8 °F 10.2 °F 10.4 °F 79% 30.00 in 10.0 mi WSW 3.5 mph - N/A   Mostly Cloudy
6:56 AM 15.1 °F 9.4 °F 10.9 °F 84% 30.05 in 9.0 mi WSW 3.5 mph - N/A   Overcast
7:56 AM 17.1 °F 11.7 °F 12.9 °F 84% 30.04 in 9.0 mi SSW 3.5 mph - N/A   Overcast
8:56 AM 19.0 °F 12.3 °F 12.9 °F 77% 30.04 in 8.0 mi South 4.6 mph - N/A   Overcast
9:56 AM 21.0 °F 10.6 °F 15.1 °F 78% 30.01 in 10.0 mi South 9.2 mph - N/A   Overcast
10:51 AM 23.0 °F 12.4 °F 17.6 °F 80% 29.95 in 10.0 mi South 10.4 mph - N/A   Scattered Clouds
10:56 AM 23.0 °F 13.9 °F 17.1 °F 78% 30.00 in 10.0 mi South 8.1 mph - N/A   Partly Cloudy
11:56 AM 26.1 °F 14.5 °F 18.0 °F 71% 29.96 in 10.0 mi SSW 13.8 mph - N/A   Partly Cloudy
12:56 PM 27.0 °F 15.6 °F 18.0 °F 69% 29.93 in 10.0 mi SSW 13.8 mph - N/A   Clear
1:56 PM 30.0 °F 20.0 °F 19.9 °F 66% 29.91 in 10.0 mi SSW 12.7 mph - N/A   Clear
2:56 PM 32.0 °F 23.6 °F 19.9 °F 61% 29.88 in 10.0 mi SSW 10.4 mph - N/A   Clear
3:56 PM 33.1 °F 24.9 °F 21.9 °F 64% 29.86 in 10.0 mi South 10.4 mph - N/A   Clear
4:56 PM 32.0 °F 24.2 °F 21.9 °F 66% 29.86 in 10.0 mi SSW 9.2 mph - N/A   Clear
5:56 PM 30.9 °F 23.5 °F 21.9 °F 69% 29.87 in 10.0 mi SSW 8.1 mph - N/A   Clear
6:56 PM 28.9 °F 22.8 °F 21.9 °F 75% 29.86 in 10.0 mi SW 5.8 mph - N/A   Clear
7:56 PM 26.1 °F 19.4 °F 21.0 °F 81% 29.86 in 10.0 mi SSW 5.8 mph - N/A   Clear
8:56 PM 26.1 °F 20.5 °F 21.9 °F 84% 29.84 in 10.0 mi SSW 4.6 mph - N/A   Clear
9:56 PM 24.1 °F 18.2 °F 21.9 °F 91% 29.83 in 8.0 mi SSW 4.6 mph - N/A   Clear
10:56 PM 25.0 °F 18.1 °F 21.9 °F 88% 29.83 in 9.0 mi WSW 5.8 mph - N/A   Clear
11:56 PM 23.0 °F 13.9 °F 19.9 °F 88% 29.81 in 10.0 mi SSW 8.1 mph - N/A   Clear